Hillsboro, TX

5:28 AM CST on December 18, 2017 (GMT -0600)
Hillsboro

Weather History for KINJ - October, 2012

Change the Weather History Date:

Friday, October 26, 2012

  Actual Average (KACT) Record (KACT)
Temperature  
Mean Temperature 50 °F -  
Max Temperature 57 °F 75 °F 94 °F (1992)
Min Temperature 44 °F 55 °F 35 °F (2007)
Degree Days  
Heating Degree Days 14    
Moisture  
Dew Point 39 °F    
Average Humidity 65    
Maximum Humidity 87    
Minimum Humidity 47    
Precipitation  
Precipitation 0.14 in - - ()
Sea Level Pressure  
Sea Level Pressure 30.20 in    
Wind  
Wind Speed 4 mph (NNW)    
Max Wind Speed 20 mph    
Max Gust Speed 28 mph    
Visibility 10 miles    
Events Rain    
Averages and records for this station are not official NWS values.
T = Trace of Precipitation, MM = Missing Value Source: NWS Daily Summary

Daily Weather History Graph

Daily Weather History Graph

Search for Another Location

Airport or City:

Trip Planner

Search our weather history database for the weather conditions in past years. The results will help you decide how hot, cold, wet, or windy it might be!

Date:

Astronomy

Oct. 26, 2012 Rise Set
Actual Time 7:40 AM CDT 6:43 PM CDT
Civil Twilight 7:15 AM CDT 7:08 PM CDT
Nautical Twilight 6:46 AM CDT 7:37 PM CDT
Astronomical Twilight 6:18 AM CDT 8:05 PM CDT
Moon 4:52 PM CDT (10/26) 4:47 AM CDT (10/26)
Length of Visible Light 11h 52m
Length of Day
11h 02m
Waxing Gibbous, 91% of the Moon is Illuminated
Oct 26
Waxing Gibbous
Oct 29
Full
Nov 6
Last Quarter
Nov 13
New
Nov 20
First Quarter

Hourly Weather History & Observations

Time (CDT) Temp. Dew Point Humidity Pressure Visibility Wind Dir Wind Speed Gust Speed Precip Events Conditions
12:15 AM 57.2 °F 42.8 °F 59% 30.07 in 10.0 mi Calm Calm - N/A   Overcast
12:35 AM 57.2 °F 42.8 °F 59% 30.07 in 10.0 mi Calm Calm - N/A   Overcast
12:55 AM 57.2 °F 42.8 °F 59% 30.08 in 10.0 mi Calm Calm - N/A   Overcast
1:15 AM 55.4 °F 41.0 °F 58% 30.09 in 10.0 mi Calm Calm - N/A   Overcast
1:35 AM 55.4 °F 41.0 °F 58% 30.09 in 10.0 mi Calm Calm - N/A   Overcast
1:55 AM 53.6 °F 41.0 °F 62% 30.09 in 10.0 mi Calm Calm - N/A   Overcast
2:15 AM 53.6 °F 41.0 °F 62% 30.09 in 10.0 mi Calm Calm - N/A   Overcast
2:35 AM 53.6 °F 41.0 °F 62% 30.10 in 10.0 mi Calm Calm - N/A   Overcast
2:55 AM 53.6 °F 39.2 °F 58% 30.10 in 10.0 mi Calm Calm - N/A   Overcast
3:15 AM 53.6 °F 39.2 °F 58% 30.10 in 10.0 mi Calm Calm - N/A   Overcast
3:35 AM 51.8 °F 41.0 °F 67% 30.10 in 10.0 mi Calm Calm - N/A   Overcast
3:55 AM 51.8 °F 41.0 °F 67% 30.10 in 10.0 mi Calm Calm - N/A Rain Light Rain
4:15 AM 50.0 °F 41.0 °F 71% 30.10 in 10.0 mi Calm Calm - N/A Rain Rain
4:55 AM 50.0 °F 42.8 °F 76% 30.12 in 10.0 mi Calm Calm - N/A   Overcast
5:15 AM 50.0 °F 41.0 °F 71% 30.12 in 10.0 mi Calm Calm - N/A   Overcast
5:35 AM 48.2 °F 41.0 °F 76% 30.12 in 3.0 mi Calm Calm - 0.12 in Rain Heavy Rain
5:55 AM 48.2 °F 42.8 °F 82% 30.13 in 10.0 mi Calm Calm - 0.14 in Rain Light Rain
6:35 AM 46.4 °F 42.8 °F 87% 30.15 in 10.0 mi Calm Calm - N/A Rain Rain
6:55 AM 46.4 °F 42.8 °F 87% 30.15 in 10.0 mi Calm Calm - N/A   Overcast
7:15 AM 48.2 °F 42.8 °F 82% 30.16 in 10.0 mi Calm Calm - N/A Rain Light Rain
7:35 AM 48.2 °F 42.8 °F 82% 30.17 in 10.0 mi Calm Calm - N/A   Overcast
7:55 AM 48.2 °F 42.8 °F 82% 30.17 in 10.0 mi Calm Calm - N/A   Overcast
9:35 AM 50.0 °F 41.0 °F 71% 30.20 in 10.0 mi North 19.6 mph 26.5 mph N/A   Mostly Cloudy
9:55 AM 50.0 °F 41.0 °F 71% 30.21 in 10.0 mi North 19.6 mph 25.3 mph N/A   Overcast
10:15 AM 50.0 °F 41.0 °F 71% 30.23 in 10.0 mi North 13.8 mph 27.6 mph N/A   Overcast
10:35 AM 50.0 °F 39.2 °F 66% 30.23 in 10.0 mi North 17.3 mph 27.6 mph N/A   Overcast
10:55 AM 50.0 °F 41.0 °F 71% 30.24 in 10.0 mi North 10.4 mph 20.7 mph N/A   Overcast
11:15 AM 50.0 °F 41.0 °F 71% 30.24 in 10.0 mi North 11.5 mph 20.7 mph N/A   Overcast
11:35 AM 50.0 °F 41.0 °F 71% 30.25 in 10.0 mi North 11.5 mph 19.6 mph N/A   Overcast
11:55 AM 50.0 °F 41.0 °F 71% 30.26 in 10.0 mi North 15.0 mph 21.9 mph N/A   Overcast
12:15 PM 51.8 °F 41.0 °F 67% 30.26 in 10.0 mi NNW 13.8 mph 20.7 mph N/A   Overcast
12:35 PM 51.8 °F 41.0 °F 67% 30.26 in 10.0 mi NNW 16.1 mph 25.3 mph N/A   Overcast
12:55 PM 51.8 °F 41.0 °F 67% 30.26 in 10.0 mi NNW 18.4 mph 25.3 mph N/A   Overcast
1:35 PM 51.8 °F 41.0 °F 67% 30.24 in 10.0 mi NNW 16.1 mph 25.3 mph N/A   Overcast
1:55 PM 51.8 °F 41.0 °F 67% 30.24 in 10.0 mi NNW 17.3 mph 23.0 mph N/A   Overcast
2:15 PM 51.8 °F 39.2 °F 62% 30.24 in 10.0 mi NNW 15.0 mph 21.9 mph N/A   Overcast
2:35 PM 51.8 °F 39.2 °F 62% 30.24 in 10.0 mi NNW 16.1 mph 23.0 mph N/A   Overcast
2:55 PM 51.8 °F 39.2 °F 62% 30.23 in 10.0 mi North 15.0 mph 23.0 mph N/A   Overcast
3:15 PM 51.8 °F 37.4 °F 58% 30.23 in 10.0 mi NNW 19.6 mph 25.3 mph N/A   Overcast
3:35 PM 53.6 °F 37.4 °F 54% 30.23 in 10.0 mi NNW 16.1 mph 25.3 mph N/A   Mostly Cloudy
4:15 PM 53.6 °F 37.4 °F 54% 30.22 in 10.0 mi North 12.7 mph 25.3 mph N/A   Clear
4:35 PM 53.6 °F 37.4 °F 54% 30.21 in 10.0 mi North 13.8 mph 18.4 mph N/A   Scattered Clouds
4:55 PM 53.6 °F 37.4 °F 54% 30.22 in 10.0 mi North 10.4 mph 19.6 mph N/A   Scattered Clouds
5:15 PM 53.6 °F 37.4 °F 54% 30.21 in 10.0 mi North 11.5 mph 18.4 mph N/A   Scattered Clouds
5:35 PM 55.4 °F 35.6 °F 47% 30.22 in 10.0 mi North 10.4 mph 21.9 mph N/A   Scattered Clouds
5:55 PM 53.6 °F 35.6 °F 51% 30.22 in 10.0 mi NNW 13.8 mph 19.6 mph N/A   Scattered Clouds
6:15 PM 53.6 °F 35.6 °F 51% 30.22 in 10.0 mi North 3.5 mph 17.3 mph N/A   Mostly Cloudy
6:35 PM 51.8 °F 35.6 °F 54% 30.23 in 10.0 mi Calm Calm - N/A   Scattered Clouds
6:55 PM 50.0 °F 33.8 °F 54% 30.25 in 10.0 mi Calm Calm - N/A   Clear
7:35 PM 48.2 °F 33.8 °F 58% 30.27 in 10.0 mi Calm Calm - N/A   Clear
7:55 PM 46.4 °F 33.8 °F 62% 30.28 in 10.0 mi Calm Calm - N/A   Clear
8:15 PM 46.4 °F 33.8 °F 62% 30.28 in 10.0 mi Calm Calm - N/A   Clear
8:35 PM 46.4 °F 33.8 °F 62% 30.29 in 10.0 mi Calm Calm - N/A   Clear
8:55 PM 46.4 °F 33.8 °F 62% 30.29 in 10.0 mi Calm Calm - N/A   Scattered Clouds
9:15 PM 44.6 °F 33.8 °F 66% 30.29 in 10.0 mi Calm Calm - N/A   Scattered Clouds
9:35 PM 44.6 °F 33.8 °F 66% 30.30 in 10.0 mi Calm Calm - N/A   Scattered Clouds
9:55 PM 44.6 °F 35.6 °F 71% 30.30 in 10.0 mi Calm Calm - N/A   Mostly Cloudy
10:15 PM 44.6 °F 35.6 °F 71% 30.30 in 10.0 mi Calm Calm - N/A   Scattered Clouds
10:35 PM 44.6 °F 33.8 °F 66% 30.30 in 10.0 mi Calm Calm - N/A   Scattered Clouds
11:15 PM 44.6 °F 33.8 °F 66% 30.30 in 10.0 mi Calm Calm - N/A   Mostly Cloudy
11:55 PM 44.6 °F 33.8 °F 66% 30.30 in 10.0 mi Calm Calm - N/A   Scattered Clouds